Home > Weather > Urmia > Past weeks

Flag for Iran Weather for the Past 2 Weeks in Urmia, Iran

Now
25 °F

Passing clouds.


Feels Like: 19 °F
Forecast: 16 / 40 °F
Wind: 5 mph from Southwest

Location: Orumieh

Current Time: Feb 11, 2016 at 2:40:45 AM

Latest Report: Feb 11, 2016 at 1:30 AM


Visibility: N/A

Pressure: 30.12 "Hg (25.38 "Hg at 1348m altitude)

Humidity: 74%

Dew point: 18 °F

Location of UrmiaLocation

Historic Weather in Urmia — Graph

°F

Urmia Temperature Yesterday

Maximum temperature yesterday: 36 °F (at 2:30 PM)
Minimum temperature yesterday: 21 °F (at 4:30 AM)
Average temperature yesterday: 28 °F

High & Low Weather Summary for the Past Weeks

 TemperatureHumidityPressure
High48 °F (Feb 6, 3:30 PM)100% (Feb 2, 10:00 PM)30.39 "Hg (Feb 2, 10:00 PM)
Low5 °F (Jan 28, 7:30 AM)33% (Jan 29, 12:00 PM)29.80 "Hg (Feb 7, 2:20 PM)
Average28 °F71%30.17 "Hg
* Reported Jan 27 12:30 AM — Feb 11 12:30 AM, Urmia, Weather by CustomWeather, © 2016

Note: Actual official high and low records may vary slightly from our data, if they occured in-between our weather recording intervals... More about our weather records

Advertising

Urmia Weather History for the Previous 24 Hours

 ConditionsComfort  
Time TempWeatherWind HumidityBarometerVisibility
12:30 AM
Thu, Feb 11
25 °FPassing clouds.7 mph74%30.12 "HgN/A
11:30 PM
Wed, Feb 10
25 °FPassing clouds.7 mph80%30.12 "HgN/A
10:30 PM27 °FPassing clouds.5 mph80%30.12 "HgN/A
10:00 PM27 °FPassing clouds.5 mph80%30.15 "HgN/A
9:30 PM27 °FPassing clouds.5 mph80%30.15 "HgN/A
9:00 PM27 °FPassing clouds.5 mph86%30.15 "HgN/A
8:30 PM28 °FPassing clouds.5 mph80%30.15 "HgN/A
8:00 PM28 °FPassing clouds.2 mph80%30.15 "HgN/A
7:30 PM30 °FPassing clouds.5 mph75%30.15 "HgN/A
7:00 PM32 °FPassing clouds.5 mph69%30.15 "HgN/A
6:30 PM32 °FScattered clouds.5 mph69%30.15 "HgN/A
6:00 PM34 °FScattered clouds.5 mph51%30.15 "HgN/A
5:23 PM34 °FScattered clouds.5 mph51%30.15 "HgN/A
4:22 PM34 °FScattered clouds.7 mph56%30.15 "HgN/A
3:20 PM36 °FScattered clouds.5 mph52%30.15 "HgN/A
2:30 PM36 °FScattered clouds.5 mph56%30.18 "HgN/A
1:30 PM34 °FScattered clouds.5 mph60%30.21 "HgN/A
12:23 PM32 °FDuststorm.N/A60%30.24 "HgN/A
11:30 AM32 °FPassing clouds.No wind64%30.27 "HgN/A
10:30 AM30 °FPartly sunny.5 mph59%30.24 "HgN/A
10:00 AM28 °FPartly sunny.5 mph64%30.24 "HgN/A
9:30 AM25 °FPartly sunny.5 mph69%30.24 "HgN/A
9:00 AM23 °FScattered clouds.7 mph74%30.24 "HgN/A
8:30 AM23 °FScattered clouds.5 mph63%30.24 "HgN/A
8:00 AM21 °FScattered clouds.5 mph74%30.24 "HgN/A
7:30 AM21 °FPassing clouds.5 mph74%30.24 "HgN/A
7:00 AM21 °FPassing clouds.7 mph74%30.24 "HgN/A
6:30 AM21 °FPassing clouds.7 mph74%30.24 "HgN/A
5:30 AM21 °FPassing clouds.7 mph80%30.24 "HgN/A
4:30 AM21 °FPassing clouds.7 mph80%30.24 "HgN/A
3:30 AM23 °FPassing clouds.7 mph74%30.24 "HgN/A
2:30 AM25 °FPassing clouds.5 mph74%30.24 "HgN/A
2:00 AM27 °FPassing clouds.5 mph69%30.24 "HgN/A
Weather by CustomWeather, © 2016

See weather overviewHow to use our weather pages